Find Yaogan 50 hao 02 xing

NORAD ID: 68196 Int'l Des: 2026-051 Owner: ZXW Country: CN Constellation: yaogan operational
LEORETROGRADE

Live-Position

3D-Globus wird geladen...

Über Yaogan 50 hao 02 xing

Beschreibung wird geladen...

Nächste Überflüge

Passes for default location (London). Set your location on the main map for personalized predictions.

Höhenverlauf

Loading altitude history...

Zweizeiliger Elementsatz

1 68196U 26051A 26120.92479883 .00000301 00000-0 10358-3 0 9999
2 68196 141.9850 99.3501 0001030 257.1198 102.9407 13.83258191 6442
Epoch: 30. Apr. 2026 • Age: 10 hours

Aktueller Status

Höhe 951.5 km
Geschwindigkeit 7.38 km/s
Subsatellitenpunkt 2.24°N, 110.16°E
Startdatum 15. März 2026
Alter 0.1 years
Typ military

Technische Details

Klassifizierung Payload
Masse 1500.00 kg
Trockenmasse 1500.00 kg
Gesamtmasse 1500.00 kg
Länge 4.00 m
Durchmesser 2.00 m
Spannweite 10.00 m
Form Box + 2 Pan
Hersteller CAST
Bus-Typ YG50
Phasenstatus In Orbit
Besitzer/Staat ZXW/CN

Most Searched